Theta_e
353 354 355 356 361 357 360 354 352 354 353 350 349 350 355 353 355 359 352 353 355 352 346 346 345 344 343 339 339 335 333 332 331 331 332 332 329 329 329 330 335 336 337 338 340 339 338 335 333
353 355 356 356 357 355 360 351 351 351 349 348 347 349 351 352 353 353 353 354 354 353 349 346 346 345 344 339 336 336 334 332 331 332 332 331 331 329 329 330 329 328 330 335 340 341 340 339 334
355 357 359 360 352 357 362 352 350 348 348 350 348 347 351 352 351 354 353 353 353 352 353 345 346 345 345 342 338 336 334 334 339 337 333 334 332 332 334 333 336 334 335 336 336 335 335 339 335
354 359 359 361 359 356 355 350 349 348 346 347 349 351 349 348 351 354 352 352 351 352 352 344 346 346 344 345 344 343 340 341 343 341 337 335 335 337 338 337 339 340 337 335 337 341 340 339 336
351 356 356 356 355 353 352 349 349 350 347 348 347 351 351 350 352 353 353 352 352 351 346 348 346 344 344 343 343 343 343 343 343 342 340 340 338 339 339 339 339 340 340 338 339 338 339 339 333
353 353 358 356 354 352 349 348 348 349 348 347 348 353 353 351 351 353 352 351 351 352 348 347 342 340 341 343 342 340 342 342 343 340 339 338 338 338 338 339 339 340 341 341 338 339 341 342 335
351 355 353 352 351 351 349 349 349 348 349 350 349 354 350 352 350 353 353 351 351 351 350 339 337 337 339 340 338 340 340 340 339 338 338 338 337 338 340 340 340 339 340 339 341 339 329 333 340
348 349 350 350 352 352 347 345 348 347 351 348 349 354 351 351 353 354 353 351 352 352 350 344 337 339 339 339 339 339 341 341 339 337 338 339 340 340 340 340 336 337 341 336 331 329 333 338 339
342 351 353 347 349 349 347 346 346 346 350 345 351 352 345 351 352 353 353 352 351 352 353 350 340 338 340 341 341 340 340 341 340 339 338 339 340 340 340 338 345 337 338 330 328 331 338 337 342
349 351 345 344 344 346 347 346 347 348 349 350 350 354 353 353 353 353 352 352 352 352 351 352 345 341 341 344 342 342 340 341 339 339 339 340 340 343 341 341 337 332 332 329 334 333 338 342 346
342 345 341 342 342 344 345 347 345 348 350 349 352 350 354 353 352 352 352 351 352 350 351 351 349 348 346 345 344 346 341 341 341 341 341 341 340 340 344 346 340 329 343 334 337 343 346 347 349
343 340 340 341 342 343 346 345 346 346 348 348 344 346 345 353 351 352 352 351 351 352 350 350 351 349 348 347 346 344 340 341 341 341 341 340 340 341 346 346 346 344 348 346 338 344 346 348 349
341 339 339 340 341 343 343 345 346 345 347 347 351 353 353 351 350 350 349 351 350 351 350 350 351 349 348 348 346 345 341 341 341 341 340 340 339 342 345 345 346 345 343 346 346 347 348 347 347
339 338 340 339 339 340 341 343 344 347 348 347 350 350 351 349 350 350 349 351 350 351 352 350 349 347 348 347 346 346 345 342 340 342 340 340 340 344 341 343 342 345 343 347 347 348 348 345 349
338 339 341 341 337 340 340 345 347 347 346 347 348 350 348 348 349 350 349 349 351 349 349 348 350 350 348 347 346 347 348 347 343 343 342 341 341 344 343 343 342 347 344 346 348 346 346 349 347
339 340 343 342 337 339 338 355 349 346 347 347 350 348 349 348 349 349 349 350 350 349 351 349 349 350 348 347 347 345 344 344 342 342 343 341 342 341 346 345 345 347 346 350 350 345 348 350 343
340 341 342 338 337 336 339 343 342 345 346 347 350 349 348 347 348 349 349 350 348 351 350 349 351 349 349 347 346 345 344 346 344 341 342 342 341 339 343 344 344 347 346 339 346 349 349 347 348
342 343 341 337 336 336 343 343 342 346 347 348 350 349 347 347 346 348 349 350 350 350 348 347 348 349 348 348 346 345 345 345 341 343 342 342 341 335 341 347 346 344 349 350 350 347 348 349 348
340 341 336 336 336 337 344 345 345 345 349 347 350 350 347 346 346 344 348 349 350 351 348 350 349 349 349 346 345 345 346 346 340 343 342 343 340 337 343 348 347 342 351 346 341 342 348 346 350
337 337 336 334 336 340 343 344 345 345 347 347 351 343 341 347 347 347 347 348 350 349 349 349 351 349 347 346 345 346 347 346 343 345 342 342 340 343 339 347 346 343 349 349 343 340 347 350 348
336 336 336 333 338 341 344 344 339 341 346 348 348 350 348 349 347 347 347 347 348 350 351 351 350 352 348 347 346 347 346 346 344 343 342 340 345 350 342 348 337 345 347 350 340 342 345 346 350
337 337 333 333 336 345 341 346 340 340 347 348 347 351 345 349 348 347 347 347 348 349 352 352 352 352 350 349 345 346 345 346 345 345 343 342 343 343 344 343 345 343 346 342 349 344 347 342 350
336 335 333 334 336 339 342 345 345 342 348 347 346 346 349 349 348 348 346 348 347 349 353 353 355 353 351 348 345 347 347 346 344 346 346 343 347 349 350 346 343 345 341 349 345 351 351 347 348
335 334 334 335 336 339 339 344 352 345 345 344 344 344 346 345 349 349 346 347 345 348 349 352 353 353 351 349 347 346 348 347 345 346 345 344 346 344 347 350 344 343 340 345 344 344 346 345 348
334 334 336 340 337 339 341 346 346 344 344 343 344 344 347 347 346 348 344 348 349 349 349 353 354 354 351 350 349 347 346 346 345 345 345 346 348 342 341 346 344 342 340 342 342 346 341 344 342
337 335 336 345 348 340 343 348 345 344 345 345 343 345 345 348 346 347 345 345 349 350 352 353 355 355 353 352 349 349 347 345 346 345 345 346 345 348 349 347 344 345 341 339 344 348 343 342 344
336 334 335 335 340 339 344 346 344 344 346 346 347 347 347 348 347 346 346 346 348 351 352 354 355 356 355 353 350 349 349 345 349 347 347 346 346 346 349 345 343 343 345 350 344 345 346 347 349
334 335 336 335 343 345 341 348 353 347 348 348 349 349 350 350 350 350 350 347 348 350 353 354 355 355 357 355 353 349 349 345 345 347 346 345 347 346 347 348 344 344 349 346 348 346 347 348 343
334 333 334 335 340 341 346 348 346 348 347 347 347 347 348 349 350 351 351 349 348 348 350 354 354 356 357 356 354 352 349 345 347 349 347 345 346 347 347 346 344 345 346 346 344 345 348 351 344
336 337 336 338 341 340 341 353 345 345 346 346 345 345 346 348 349 350 353 355 353 352 351 352 354 355 356 357 355 352 352 349 347 349 350 346 345 347 347 341 333 348 345 349 346 345 345 348 347
Wind_Speed
3 8 10 8 2 3 7 5 12 10 5 16 2 9 20 17 7 4 23 20 25 22 23 21 19 19 18 18 18 18 17 16 16 15 13 14 14 13 13 11 10 8 7 6 5 4 5 6 7
5 8 8 8 6 6 5 11 14 14 7 10 8 16 21 18 12 22 22 23 21 22 22 22 20 19 19 18 17 17 16 15 15 15 12 12 11 9 8 8 5 4 4 4 3 2 2 3 4
2 4 8 2 6 3 5 7 11 10 4 16 1 12 15 15 13 15 24 24 22 20 19 22 20 19 19 19 18 18 17 16 16 17 16 13 10 8 7 4 2 3 3 2 2 1 1 1 4
8 7 8 4 5 13 4 4 11 14 6 10 13 11 16 11 9 23 25 26 22 24 18 23 20 19 18 19 18 18 16 16 15 13 12 12 9 6 4 2 3 3 3 2 2 2 2 3 3
17 7 1 3 8 3 10 9 7 8 1 19 12 11 11 13 15 23 27 24 23 22 19 22 21 20 18 18 15 14 14 14 12 11 11 9 11 6 4 2 3 3 2 3 3 2 2 3 4
8 7 1 2 2 5 4 2 1 7 2 5 12 10 16 15 19 28 26 25 23 21 18 22 22 20 19 16 16 13 10 11 10 11 12 8 7 6 5 5 6 2 3 4 2 3 4 4 3
16 8 13 12 13 7 3 3 3 4 2 10 4 9 7 10 14 26 23 20 21 19 19 21 23 20 15 16 16 13 11 12 12 10 9 10 11 11 9 6 5 4 2 3 3 4 5 6 5
8 4 13 14 7 3 7 5 1 6 5 8 9 8 4 7 23 24 22 24 20 21 19 17 22 22 20 14 13 13 12 8 16 17 10 9 6 7 9 9 2 3 3 5 6 5 6 4 3
31 5 9 4 7 7 15 8 3 4 8 5 5 8 24 24 24 23 22 19 20 21 17 15 20 22 21 12 11 14 11 9 13 16 14 11 6 1 5 5 4 5 6 5 4 4 4 3 4
11 5 8 8 12 6 3 5 1 7 9 3 5 25 23 24 26 23 22 18 20 23 19 17 16 18 16 14 14 11 10 12 13 15 13 10 7 7 7 5 0 4 4 3 2 3 3 3 1
6 4 6 7 6 9 10 3 4 4 6 9 6 12 12 14 20 19 17 18 20 19 17 18 15 15 15 15 10 10 10 12 13 12 12 11 9 8 6 8 4 2 1 4 2 5 4 1 4
4 5 7 6 7 5 7 5 4 1 5 12 1 17 14 19 23 21 19 17 22 21 19 16 14 15 14 13 14 10 14 10 12 10 12 10 6 6 7 5 9 4 9 8 7 4 1 1 5
6 7 8 3 4 3 5 6 5 4 2 5 13 23 19 13 21 17 17 17 18 21 15 16 15 14 17 15 12 11 13 12 12 10 12 12 8 11 8 6 4 11 13 11 5 4 0 3 0
10 8 14 1 4 7 3 10 18 6 8 7 18 13 12 12 22 21 19 17 17 13 20 15 11 11 16 13 12 10 9 11 12 11 13 12 9 9 14 4 7 5 10 9 2 1 6 1 3
11 12 16 13 1 6 7 14 9 8 5 10 10 13 9 11 27 23 19 20 18 16 14 15 15 9 13 11 9 12 13 12 10 11 13 13 12 14 9 7 11 5 5 1 2 9 4 1 6
15 5 2 20 4 4 7 17 19 7 8 12 17 8 11 12 22 21 21 21 16 15 14 12 11 14 13 13 13 13 15 11 11 11 12 13 15 15 11 9 8 5 6 6 9 5 4 5 4
2 7 16 6 5 4 5 11 7 11 12 15 23 28 18 13 22 24 22 21 17 19 17 16 14 11 14 12 13 11 14 16 12 10 14 14 17 20 16 10 11 7 5 1 1 3 10 8 7
11 14 20 4 5 7 4 4 10 10 9 11 19 17 21 19 14 19 19 19 19 17 12 7 14 16 13 15 11 11 12 12 12 11 13 16 21 18 18 8 6 5 3 8 2 3 8 8 0
19 20 9 1 2 4 15 15 10 4 3 6 20 18 10 17 22 18 20 19 17 17 9 10 12 15 16 14 13 12 10 9 13 11 14 15 18 17 17 7 10 7 5 7 7 5 3 6 3
13 10 9 3 3 6 11 9 25 14 1 6 32 31 13 24 21 19 20 19 20 16 15 12 16 16 17 14 11 12 11 12 9 15 17 17 19 13 13 15 14 8 7 7 5 5 1 4 6
13 12 7 6 7 16 14 11 28 34 8 3 9 38 25 33 23 22 21 21 19 21 18 12 14 16 12 10 11 13 13 11 13 13 18 21 18 16 17 11 16 9 12 9 4 5 1 3 3
9 11 4 7 11 5 8 4 13 33 2 2 5 29 32 24 22 23 20 19 20 23 16 13 15 14 11 11 12 14 13 14 14 13 15 20 18 15 14 14 12 11 12 10 4 3 3 4 3
10 6 8 10 12 7 11 7 10 14 11 7 8 7 23 18 22 18 12 20 21 18 13 11 16 13 11 10 11 15 15 12 13 14 15 17 18 18 16 14 17 16 14 7 11 4 7 5 3
8 12 14 14 14 4 9 11 6 6 9 10 11 10 6 14 17 14 11 18 12 13 11 14 17 13 12 11 11 15 14 14 13 18 18 22 19 22 20 19 17 13 14 11 8 11 7 8 5
10 12 8 6 5 7 9 13 9 10 13 13 11 12 12 10 8 12 9 10 12 13 13 17 17 16 13 14 14 15 14 17 15 18 22 18 19 17 19 18 17 17 13 12 8 9 9 7 7
14 16 10 6 4 8 16 8 6 13 20 19 14 15 13 16 16 14 15 14 14 14 17 17 19 18 15 16 16 18 17 21 20 20 22 21 19 21 23 18 17 16 15 14 12 10 8 8 8
15 8 15 8 18 10 7 6 11 13 13 16 15 14 14 15 3 16 19 17 19 17 18 17 20 18 16 15 14 18 20 26 20 22 23 22 23 27 22 21 16 15 14 11 14 14 13 11 12
14 12 10 5 4 7 3 4 4 13 12 12 14 14 13 11 10 10 10 6 19 16 17 19 20 20 19 19 19 18 21 25 26 23 21 26 22 20 16 20 15 17 14 16 18 14 10 12 13
10 10 10 11 12 5 7 10 14 13 13 12 15 15 14 12 12 10 10 8 7 13 15 19 22 20 20 20 21 18 19 20 29 26 25 24 22 23 15 16 15 15 19 20 22 18 18 19 13
8 12 11 5 6 7 8 9 19 11 14 16 15 14 14 13 12 13 11 11 6 6 2 20 21 22 21 21 22 22 24 20 24 30 25 27 29 24 24 20 18 19 21 21 21 21 18 16 12
Wind_Direction
58 25 1 287 317 337 199 184 111 72 103 131 23 89 103 116 124 123 150 142 146 144 152 151 144 141 138 135 137 141 138 138 136 134 132 135 139 138 137 137 134 125 118 117 112 99 77 65 74
268 267 272 270 71 5 316 56 71 101 99 102 84 70 92 83 110 124 132 140 143 144 143 152 149 144 142 137 138 137 138 133 131 127 128 133 139 144 141 146 153 152 141 138 123 107 67 55 67
278 241 237 178 141 227 287 88 91 103 130 127 250 94 60 116 120 126 141 145 138 139 148 150 151 150 147 146 139 132 132 137 142 137 135 144 142 147 147 156 178 178 182 177 190 287 352 99 103
286 250 270 255 197 188 320 103 92 64 19 44 73 47 71 92 122 131 136 146 142 142 158 148 153 147 145 152 151 148 150 148 141 145 158 177 172 154 145 156 230 222 224 224 207 158 142 136 139
267 154 185 340 56 358 183 47 80 126 105 107 97 141 112 97 110 129 134 140 143 149 169 150 153 152 150 153 151 148 159 164 165 167 174 172 185 198 204 238 286 241 198 201 195 173 164 166 160
303 298 300 12 200 121 38 95 5 67 280 66 74 71 98 114 129 140 143 145 149 146 154 155 153 156 155 157 151 148 164 172 176 182 170 177 188 222 218 263 258 270 198 197 168 171 163 179 230
245 311 335 61 37 352 121 266 349 232 123 356 20 96 106 130 136 145 143 152 153 143 168 163 161 162 166 167 159 165 175 195 189 196 201 208 225 229 247 241 228 228 198 191 190 203 193 193 219
55 38 355 315 90 329 6 293 323 313 81 94 239 122 87 143 145 141 144 148 159 158 174 178 172 171 166 177 196 200 215 227 213 220 213 206 248 222 257 232 203 238 215 232 218 206 211 240 274
80 356 254 350 57 8 349 331 232 247 143 153 173 139 153 152 149 142 141 143 163 158 179 177 183 187 193 206 200 208 230 230 214 207 202 220 181 176 124 147 214 258 232 240 220 212 237 287 281
123 190 14 3 3 335 168 346 223 240 60 94 345 121 139 153 143 146 149 153 170 177 176 189 192 196 202 198 207 212 222 214 195 189 197 207 203 216 178 139 122 264 254 224 231 251 263 243 299
339 40 357 359 16 320 346 350 350 42 112 178 95 307 142 149 153 153 164 175 181 189 184 186 203 191 198 197 201 206 209 197 191 199 203 206 212 225 185 192 118 137 66 194 308 228 90 242 301
310 31 344 355 4 323 298 350 314 34 90 166 176 186 173 183 156 159 172 176 175 176 192 193 202 194 197 187 209 214 191 183 194 203 202 200 181 183 215 251 247 274 247 205 166 179 187 34 253
276 350 311 354 325 286 306 288 263 262 133 104 145 169 169 169 168 167 162 168 172 180 187 170 205 206 190 191 205 209 198 204 191 199 199 203 198 184 193 170 106 186 245 248 218 77 240 291 333
271 297 277 231 289 298 296 350 335 230 160 168 163 166 158 161 165 155 160 160 172 164 167 191 188 203 186 194 183 190 198 212 211 204 202 209 207 186 170 132 189 246 231 310 80 89 263 148 234
275 275 15 289 304 276 347 5 265 245 215 178 168 160 161 165 150 155 161 154 163 185 199 187 187 204 206 199 193 181 203 214 222 214 209 215 200 182 167 173 226 188 232 4 336 255 234 261 276
244 31 204 271 240 156 279 193 216 168 209 195 132 96 199 164 166 156 156 159 172 162 183 188 194 193 217 207 213 214 208 210 216 215 212 207 192 181 167 207 231 207 208 208 224 348 353 299 283
42 314 279 234 183 316 233 310 259 177 206 192 148 176 162 157 159 160 162 166 166 173 188 197 185 203 210 225 229 217 199 191 214 209 204 206 189 184 169 186 224 215 223 250 48 67 310 252 183
259 191 250 307 47 313 215 38 16 170 215 193 164 163 150 161 158 156 165 160 173 182 195 187 198 217 230 224 223 210 196 196 203 189 193 194 188 179 177 191 208 188 237 273 342 231 302 310 143
233 255 280 89 231 264 49 3 14 257 186 223 182 147 151 151 157 158 160 155 164 170 183 188 195 208 218 231 221 195 181 198 194 196 197 190 180 180 176 195 239 216 224 253 216 214 270 64 64
242 253 288 210 311 41 50 16 345 349 35 217 133 138 170 223 167 162 168 171 175 183 181 198 201 234 238 239 216 187 177 207 196 196 206 191 176 174 193 222 192 192 227 257 259 239 346 267 313
235 243 257 307 100 65 10 18 334 317 307 202 161 157 169 202 174 169 171 181 184 175 177 197 228 242 232 224 203 184 187 197 186 203 189 187 182 180 192 227 194 190 209 253 209 121 354 136 186
241 291 305 272 272 161 162 80 314 293 188 188 126 140 174 188 174 175 177 193 196 182 185 191 233 249 232 220 207 190 190 192 211 206 198 179 171 180 200 208 208 220 219 222 248 142 197 259 33
253 322 292 272 290 87 118 102 266 235 139 139 131 134 176 162 176 180 151 231 199 166 175 199 223 238 238 228 196 187 198 196 195 200 192 183 182 189 200 211 210 224 216 217 236 242 229 209 307
296 288 279 257 250 293 298 136 304 80 89 104 116 118 142 133 150 173 178 177 166 173 185 201 230 237 233 215 210 197 198 195 195 187 192 203 197 194 194 221 226 220 216 233 233 241 254 223 223
229 251 265 283 290 279 164 98 113 118 86 84 104 110 127 135 188 169 179 156 175 203 193 202 223 236 222 212 214 210 197 194 189 197 198 207 213 211 206 220 229 220 214 232 234 244 248 241 252
239 245 254 179 356 253 28 88 106 88 99 90 92 122 140 161 172 203 183 203 214 200 197 207 221 227 215 220 221 213 209 199 194 204 211 211 214 219 220 214 231 229 225 232 237 245 259 270 272
245 238 264 270 190 201 111 183 126 112 100 98 85 69 48 41 124 193 193 198 196 198 199 211 226 228 223 220 223 219 217 202 199 207 204 217 230 218 234 227 223 220 228 238 234 248 248 238 273
282 322 294 295 9 72 128 72 4 114 111 102 100 92 75 53 32 10 357 230 195 199 210 203 218 234 217 213 232 222 222 206 196 211 211 214 220 233 217 203 222 209 219 229 235 234 253 254 268
203 236 244 280 168 172 189 162 177 130 122 110 99 93 87 71 54 34 17 346 324 211 212 211 205 221 220 221 224 223 233 214 204 211 221 213 217 236 240 193 209 212 224 231 237 221 231 240 241
236 299 316 352 327 21 317 30 104 91 102 100 93 84 80 75 63 54 36 12 23 17 324 216 212 212 215 220 223 227 232 228 222 210 221 218 215 224 245 248 212 223 224 231 233 233 225 248 245